Location: Cahas Mountain Overlook
(37.0833°N, 80.1000°W)
Time: 11:27:25
(UTC-04:00)

Vanguard 1 Rocket - Pass Details

Date: 08 February 2026
Orbit: 653 x 4214 km, 34.3° (Epoch: 15 March)

Event Time Altitude Azimuth Distance (km) Brightness Sun altitude
Rises 23:35:53 0° 286° (WNW) 8,343 12.6 -64.1°
Reaches altitude 10° 23:43:14 10° 276° (W) 7,416 12.1 -64.8°
Enters shadow 23:57:15 25° 245° (WSW) 5,949 11.3 -66.1°
